When you browse on this site, cookies collect data to enhance your experience and personalize the content and advertising you see.
Visit our Privacy Policy to learn more. By continuing to use the site, you agree to this use of cookies and data.
  • In Czech Republic
  • List of Countries
  • For 7 days
  • Water Temperature
  • Satellite Maps
  • Weather Map
  • Weather Widgets
  • user-avatar
    Login

    Hourly Weather Midwest City

    Today, 18 February, Monday

    Time Temperature Precipitation Wind Pressure Humidity
    00:00 -5°C° 0 mm 5 mps 733 mmHg 58%
    01:00 -6°C° 0 mm 5 mps 734 mmHg 59%
    02:00 -6°C° 0 mm 6 mps 734 mmHg 60%
    03:00 -8°C° 0 mm 6 mps 735 mmHg 61%
    04:00 -8°C° 0 mm 6 mps 735 mmHg 60%
    05:00 -9°C° 0 mm 6 mps 736 mmHg 58%
    06:00 -10°C° 0 mm 5 mps 736 mmHg 59%
    07:00 -8°C° 0 mm 5 mps 737 mmHg 57%
    08:00 -9°C° 0 mm 6 mps 737 mmHg 54%
    09:00 -8°C° 0 mm 6 mps 737 mmHg 51%
    10:00 -6°C° 0 mm 6 mps 738 mmHg 45%
    11:00 -4°C° 0 mm 6 mps 738 mmHg 40%
    12:00 -2°C° 0 mm 6 mps 738 mmHg 34%
    13:00 -1°C° 0 mm 6 mps 738 mmHg 34%
    14:00 +1°C° 0 mm 6 mps 737 mmHg 33%
    15:00 +2°C° 0 mm 6 mps 737 mmHg 33%
    16:00 +1°C° 0 mm 5 mps 737 mmHg 36%
    17:00 0°C° 0 mm 5 mps 736 mmHg 40%
    18:00 0°C° 0 mm 4 mps 736 mmHg 43%
    19:00 -1°C° 0 mm 4 mps 737 mmHg 45%
    20:00 -2°C° 0 mm 5 mps 737 mmHg 47%
    21:00 -2°C° 0 mm 5 mps 737 mmHg 49%
    22:00 -2°C° 0 mm 5 mps 737 mmHg 51%
    23:00 -4°C° 0 mm 5 mps 737 mmHg 52%

    Tomorrow, 19 February, Tuesday

    Time Temperature Precipitation Wind Pressure Humidity
    00:00 -4°C° 0 mm 5 mps 737 mmHg 54%
    01:00 -4°C° 0 mm 5 mps 737 mmHg 56%
    02:00 -4°C° 0 mm 5 mps 736 mmHg 59%
    03:00 -4°C° 0 mm 5 mps 736 mmHg 61%
    04:00 -4°C° 0 mm 5 mps 735 mmHg 62%
    05:00 -4°C° 0 mm 5 mps 735 mmHg 63%
    06:00 -4°C° 0 mm 5 mps 735 mmHg 65%
    07:00 -4°C° 0 mm 5 mps 735 mmHg 64%
    08:00 -3°C° 0 mm 6 mps 735 mmHg 64%
    09:00 -3°C° 0 mm 6 mps 734 mmHg 64%
    10:00 -3°C° 0.4 mm 6 mps 734 mmHg 69%
    11:00 -2°C° 0.4 mm 5 mps 733 mmHg 74%
    12:00 -2°C° 0.4 mm 5 mps 733 mmHg 79%
    13:00 -2°C° 1.2 mm 5 mps 732 mmHg 84%
    14:00 -4°C° 1.2 mm 5 mps 730 mmHg 88%
    15:00 -4°C° 1.2 mm 5 mps 729 mmHg 93%
    16:00 -4°C° 0.2 mm 5 mps 729 mmHg 93%
    17:00 -2°C° 0.2 mm 5 mps 728 mmHg 94%
    18:00 -2°C° 0.2 mm 5 mps 727 mmHg 94%
    19:00 -2°C° 0.3 mm 4 mps 727 mmHg 95%
    20:00 -1°C° 0.3 mm 3 mps 726 mmHg 96%
    21:00 -1°C° 0.3 mm 2 mps 726 mmHg 97%
    22:00 -1°C° 0.2 mm 2 mps 726 mmHg 97%
    23:00 +1°C° 0.2 mm 1 mps 725 mmHg 98%

    Day after tomorrow, 20 February, Wednesday

    Time Temperature Precipitation Wind Pressure Humidity
    00:00 +1°C° 0.2 mm 1 mps 725 mmHg 99%
    01:00 +1°C° 0 mm 2 mps 725 mmHg 98%
    02:00 +1°C° 0 mm 2 mps 724 mmHg 98%
    03:00 0°C° 0 mm 3 mps 724 mmHg 97%
    04:00 -1°C° 0 mm 3 mps 724 mmHg 97%
    05:00 -1°C° 0 mm 3 mps 724 mmHg 96%
    06:00 -2°C° 0 mm 3 mps 724 mmHg 95%
    07:00 -1°C° 0 mm 3 mps 724 mmHg 95%
    08:00 -1°C° 0 mm 3 mps 724 mmHg 94%
    09:00 0°C° 0 mm 3 mps 724 mmHg 94%
    10:00 0°C° 0 mm 4 mps 724 mmHg 89%
    11:00 +1°C° 0 mm 5 mps 724 mmHg 84%
    12:00 +3°C° 0 mm 5 mps 724 mmHg 79%
    13:00 +5°C° 0 mm 6 mps 724 mmHg 67%
    14:00 +7°C° 0 mm 6 mps 724 mmHg 55%
    15:00 +9°C° 0 mm 7 mps 724 mmHg 43%
    16:00 +8°C° 0 mm 5 mps 724 mmHg 47%
    17:00 +6°C° 0 mm 4 mps 725 mmHg 52%
    18:00 +5°C° 0 mm 3 mps 725 mmHg 57%
    19:00 +3°C° 0 mm 3 mps 726 mmHg 67%
    20:00 +2°C° 0 mm 3 mps 726 mmHg 76%
    21:00 0°C° 0 mm 3 mps 727 mmHg 86%
    22:00 0°C° 0 mm 3 mps 727 mmHg 88%
    23:00 -1°C° 0 mm 3 mps 728 mmHg 90%

    21 February, Thursday

    Time Temperature Precipitation Wind Pressure Humidity
    00:00 -1°C° 0 mm 3 mps 728 mmHg 92%
    01:00 -1°C° 0 mm 3 mps 728 mmHg 92%
    02:00 -1°C° 0 mm 3 mps 728 mmHg 91%
    03:00 0°C° 0 mm 3 mps 728 mmHg 91%
    04:00 0°C° 0 mm 3 mps 729 mmHg 90%
    05:00 0°C° 0 mm 3 mps 729 mmHg 90%
    06:00 0°C° 0 mm 3 mps 729 mmHg 89%
    07:00 +1°C° 0 mm 3 mps 730 mmHg 86%
    08:00 +1°C° 0 mm 3 mps 730 mmHg 83%
    09:00 +1°C° 0 mm 4 mps 730 mmHg 80%
    10:00 +3°C° 0 mm 4 mps 731 mmHg 75%
    11:00 +5°C° 0 mm 4 mps 731 mmHg 71%
    12:00 +6°C° 0 mm 4 mps 731 mmHg 66%
    13:00 +8°C° 0 mm 5 mps 730 mmHg 61%
    14:00 +9°C° 0 mm 5 mps 729 mmHg 56%
    15:00 +11°C° 0 mm 6 mps 729 mmHg 52%
    16:00 +10°C° 0 mm 5 mps 729 mmHg 56%
    17:00 +10°C° 0 mm 4 mps 728 mmHg 59%
    18:00 +8°C° 0 mm 4 mps 728 mmHg 63%
    19:00 +7°C° 0 mm 4 mps 729 mmHg 68%
    20:00 +7°C° 0 mm 3 mps 729 mmHg 74%
    21:00 +5°C° 0 mm 3 mps 730 mmHg 79%
    22:00 +5°C° 0 mm 3 mps 730 mmHg 81%
    23:00 +4°C° 0 mm 3 mps 729 mmHg 83%

    22 February, Friday

    Time Temperature Precipitation Wind Pressure Humidity
    00:00 +4°C° 0 mm 3 mps 729 mmHg 85%
    01:00 +3°C° 0 mm 4 mps 729 mmHg 87%
    02:00 +3°C° 0 mm 4 mps 729 mmHg 88%
    03:00 +3°C° 0 mm 4 mps 729 mmHg 89%
    04:00 +3°C° 0 mm 4 mps 729 mmHg 90%
    05:00 +3°C° 0 mm 3 mps 729 mmHg 92%
    06:00 +3°C° 0 mm 3 mps 729 mmHg 93%
    07:00 +3°C° 0.1 mm 3 mps 729 mmHg 93%
    08:00 +4°C° 0.1 mm 3 mps 730 mmHg 93%
    09:00 +4°C° 0.1 mm 3 mps 730 mmHg 93%
    10:00 +5°C° 0.1 mm 3 mps 730 mmHg 92%
    11:00 +7°C° 0.1 mm 3 mps 730 mmHg 92%
    12:00 +7°C° 0.1 mm 3 mps 729 mmHg 92%
    13:00 +7°C° 0.1 mm 4 mps 729 mmHg 92%
    14:00 +8°C° 0.1 mm 5 mps 728 mmHg 91%
    15:00 +9°C° 0.1 mm 5 mps 727 mmHg 90%
    16:00 +9°C° 0.1 mm 5 mps 727 mmHg 92%
    17:00 +10°C° 0.1 mm 4 mps 726 mmHg 94%
    18:00 +10°C° 0.1 mm 4 mps 726 mmHg 96%
    19:00 +10°C° 0.1 mm 3 mps 726 mmHg 97%
    20:00 +10°C° 0.1 mm 3 mps 727 mmHg 97%
    21:00 +11°C° 0.1 mm 3 mps 727 mmHg 98%
    22:00 +11°C° 0.1 mm 3 mps 726 mmHg 98%
    23:00 +11°C° 0.1 mm 3 mps 726 mmHg 98%

    23 February, Saturday

    Time Temperature Precipitation Wind Pressure Humidity
    00:00 +11°C° 0.1 mm 3 mps 726 mmHg 98%
    01:00 +11°C° 0 mm 3 mps 725 mmHg 98%
    02:00 +11°C° 0 mm 3 mps 725 mmHg 98%
    03:00 +12°C° 0 mm 3 mps 725 mmHg 98%
    04:00 +12°C° 0 mm 3 mps 724 mmHg 98%
    05:00 +13°C° 0 mm 2 mps 724 mmHg 98%
    06:00 +13°C° 0 mm 2 mps 724 mmHg 98%
    07:00 +12°C° 1.4 mm 3 mps 723 mmHg 98%
    08:00 +13°C° 1.4 mm 3 mps 723 mmHg 98%
    09:00 +13°C° 1.4 mm 4 mps 722 mmHg 98%
    10:00 +15°C° 1.8 mm 4 mps 722 mmHg 92%
    11:00 +16°C° 1.8 mm 5 mps 721 mmHg 87%
    12:00 +19°C° 1.8 mm 6 mps 720 mmHg 82%
    13:00 +20°C° 0.4 mm 7 mps 719 mmHg 70%
    14:00 +22°C° 0.4 mm 8 mps 718 mmHg 59%
    15:00 +23°C° 0.4 mm 10 mps 717 mmHg 48%
    16:00 +22°C° 0 mm 9 mps 717 mmHg 46%
    17:00 +19°C° 0 mm 9 mps 717 mmHg 44%
    18:00 +17°C° 0 mm 8 mps 717 mmHg 42%
    19:00 +16°C° 0 mm 8 mps 717 mmHg 41%
    20:00 +15°C° 0 mm 8 mps 718 mmHg 40%
    21:00 +12°C° 0 mm 8 mps 719 mmHg 39%
    22:00 +10°C° 0 mm 9 mps 720 mmHg 49%
    23:00 +7°C° 0 mm 9 mps 721 mmHg 60%
    Show more